FW5910 Weather Reports


time (UTC)temp
C
wind
direction
speed
KPH
gust
KPH
rain 1hr
cm
rain 24hr
cm
rain mn
cm
humidity
%
barometer
mb
20260505040646 12 75 25.7 33.8 0.00 0.00 0.00 45 1013.9
20260505040146 12 90 27.4 35.4 0.00 0.00 0.00 45 1013.9
20260505035648 12 78 27.4 38.6 0.00 0.00 0.00 45 1013.9
20260505035146 12 44 29.0 40.2 0.00 0.00 0.00 45 1013.8
20260505034644 12 74 27.4 40.2 0.00 0.00 0.00 45 1013.9
20260505034144 12 106 24.1 33.8 0.00 0.00 0.00 45 1013.7
20260505033644 12 113 22.5 33.8 0.00 0.00 0.00 44 1013.6
20260505033144 12 37 20.9 33.8 0.00 0.00 0.00 44 1013.6
20260505032643 12 95 20.9 32.2 0.00 0.00 0.00 46 1013.6
20260505032144 12 70 22.5 32.2 0.00 0.00 0.00 43 1013.6
20260505031644 12 74 24.1 33.8 0.00 0.00 0.00 44 1013.6
20260505031144 12 67 24.1 33.8 0.00 0.00 0.00 45 1013.4
20260505030646 12 66 20.9 33.8 0.00 0.00 0.00 46 1013.6
20260505025644 13 80 19.3 30.6 0.00 0.00 0.00 45 1013.3
20260505025145 13 78 19.3 30.6 0.00 0.00 0.00 44 1013.3
20260505024644 13 73 19.3 33.8 0.00 0.00 0.00 43 1013.3
20260505024144 13 84 20.9 33.8 0.00 0.00 0.00 46 1013.3
20260505023645 13 86 22.5 33.8 0.00 0.00 0.00 44 1013.3
20260505023143 13 59 25.7 35.4 0.00 0.00 0.00 45 1013.3
20260505022645 13 86 24.1 35.4 0.00 0.00 0.00 43 1013.4
20260505022143 13 69 22.5 32.2 0.00 0.00 0.00 45 1013.4
20260505021143 13 71 20.9 27.4 0.00 0.00 0.00 48 1013.2
20260505020144 13 76 20.9 37.0 0.00 0.00 0.00 47 1013.3
20260505015644 13 60 20.9 37.0 0.00 0.00 0.00 44 1013.3
20260505015145 13 96 20.9 33.8 0.00 0.00 0.00 46 1013.3
20260505014644 13 80 20.9 32.2 0.00 0.00 0.00 45 1013.4
20260505014144 13 78 19.3 32.2 0.00 0.00 0.00 44 1013.2
20260505013644 13 76 19.3 37.0 0.00 0.00 0.00 45 1013.2
20260505012640 13 88 22.5 32.2 0.00 0.00 0.00 46 1013.1
20260505012141 14 80 22.5 32.2 0.00 0.00 0.00 45 1013.1
20260505011639 14 95 20.9 32.2 0.00 0.00 0.00 44 1013.2
20260505011140 14 50 19.3 27.4 0.00 0.00 0.00 45 1013.2
20260505010640 14 77 17.7 32.2 0.00 0.00 0.00 44 1013.2
20260505010140 14 69 17.7 32.2 0.00 0.00 0.00 42 1013.0
20260505005639 15 44 19.3 30.6 0.00 0.00 0.00 44 1013.0
20260505005140 15 80 16.1 24.1 0.00 0.00 0.00 44 1013.0
20260505004636 15 70 16.1 24.1 0.00 0.00 0.00 44 1012.9
20260505004137 15 79 16.1 24.1 0.00 0.00 0.00 44 1012.9
20260505003635 15 114 17.7 27.4 0.00 0.00 0.00 45 1012.9
20260505003137 15 55 16.1 27.4 0.00 0.00 0.00 45 1013.1
20260505002637 15 82 12.9 22.5 0.00 0.00 0.00 44 1013.0
20260505002135 15 99 12.9 22.5 0.00 0.00 0.00 46 1013.0
20260505001136 15 89 12.9 22.5 0.00 0.00 0.00 44 1012.9
20260505000636 15 45 12.9 22.5 0.00 0.00 0.00 44 1012.9
20260505000130 15 105 14.5 22.5 0.00 0.00 0.00 43 1012.9
20260504234630 15 124 19.3 29.0 0.00 0.00 0.00 45 1012.9
20260504234130 15 86 17.7 29.0 0.00 0.00 0.00 44 1012.8
20260504233631 15 83 17.7 29.0 0.00 0.00 0.00 44 1012.9
20260504232632 15 46 20.9 37.0 0.00 0.00 0.00 44 1012.9
20260504232131 15 80 20.9 29.0 0.00 0.00 0.00 45 1012.9
20260504231631 15 22 22.5 35.4 0.00 0.00 0.00 46 1013.2
20260504231132 15 30 22.5 35.4 0.00 0.00 0.00 46 1013.1
20260504230631 15 60 20.9 35.4 0.00 0.00 0.00 46 1013.0
20260504230133 15 84 22.5 35.4 0.00 0.00 0.00 46 1013.1
20260504225632 15 13 22.5 33.8 0.00 0.00 0.00 44 1012.9
20260504225129 15 67 19.3 33.8 0.00 0.00 0.00 44 1012.7
20260504224629 15 44 20.9 35.4 0.00 0.00 0.00 45 1013.0
20260504224131 15 84 24.1 35.4 0.00 0.00 0.00 45 1013.1
20260504223629 15 200 24.1 35.4 0.00 0.00 0.00 43 1012.9
20260504223130 15 88 22.5 32.2 0.00 0.00 0.00 46 1012.9
20260504222629 15 11 20.9 30.6 0.00 0.00 0.00 45 1012.9
20260504222129 15 62 20.9 32.2 0.00 0.00 0.00 47 1013.0
20260504221630 15 112 19.3 32.2 0.00 0.00 0.00 43 1012.8
20260504221129 15 77 19.3 30.6 0.00 0.00 0.00 45 1013.1
20260504220117 15 91 19.3 29.0 0.00 0.00 0.00 45 1012.9
20260504215115 15 74 22.5 33.8 0.00 0.00 0.00 44 1012.9
20260504214116 16 75 17.7 27.4 0.00 0.00 0.00 42 1012.9
20260504213615 16 58 17.7 27.4 0.00 0.00 0.00 42 1012.8
20260504213115 16 67 14.5 25.7 0.00 0.00 0.00 41 1012.8
20260504212613 16 72 12.9 24.1 0.00 0.00 0.00 39 1012.7
20260504212112 16 79 12.9 24.1 0.00 0.00 0.00 41 1012.6
20260504211610 16 97 11.3 20.9 0.00 0.00 0.00 40 1012.7
20260504211107 16 70 9.7 19.3 0.00 0.00 0.00 40 1012.7
20260504210607 16 95 11.3 20.9 0.00 0.00 0.00 41 1012.7
20260504210106 16 18 14.5 20.9 0.00 0.00 0.00 43 1012.8
20260504205605 16 83 16.1 25.7 0.00 0.00 0.00 41 1012.7
20260504205105 16 86 14.5 25.7 0.00 0.00 0.00 41 1012.8
20260504204606 17 52 8.0 19.3 0.00 0.00 0.00 39 1012.9
20260504204105 17 69 4.8 12.9 0.00 0.00 0.00 38 1012.8
20260504203605 17 338 3.2 12.9 0.00 0.00 0.00 37 1012.7
20260504203102 17 38 6.4 14.5 0.00 0.00 0.00 40 1012.7
20260504202601 17 55 6.4 16.1 0.00 0.00 0.00 42 1012.7
20260504201601 16 72 11.3 17.7 0.00 0.00 0.00 42 1012.8
20260504201101 16 74 11.3 17.7 0.00 0.00 0.00 44 1012.9
20260504200601 16 51 8.0 17.7 0.00 0.00 0.00 42 1012.9
20260504200101 16 73 8.0 17.7 0.00 0.00 0.00 43 1012.8
20260504195601 16 140 9.7 19.3 0.00 0.00 0.00 42 1012.8
20260504194603 16 37 11.3 22.5 0.00 0.00 0.00 38 1012.9
20260504194101 17 70 8.0 14.5 0.00 0.00 0.00 43 1012.7
20260504193602 17 36 6.4 14.5 0.00 0.00 0.00 40 1012.8
20260504193102 17 317 8.0 19.3 0.00 0.00 0.00 40 1012.9
20260504192602 17 121 11.3 19.3 0.00 0.00 0.00 38 1012.8
20260504192101 17 82 11.3 20.9 0.00 0.00 0.00 39 1012.9
20260504191600 17 74 8.0 20.9 0.00 0.00 0.00 39 1013.1
20260504191103 17 86 6.4 17.7 0.00 0.00 0.00 39 1013.0
20260504190601 17 78 6.4 16.1 0.00 0.00 0.00 40 1013.0
20260504190105 17 109 8.0 16.1 0.00 0.00 0.00 41 1013.2
20260504185102 16 28 9.7 20.9 0.00 0.00 0.00 40 1013.2
20260504184600 16 48 6.4 17.7 0.00 0.00 0.00 40 1013.3
20260504184101 16 101 8.0 17.7 0.00 0.00 0.00 39 1013.2
20260504183102 16 67 12.9 20.9 0.00 0.00 0.00 41 1013.3
20260504182601 16 80 12.9 20.9 0.00 0.00 0.00 41 1013.4
20260504182101 16 103 14.5 24.1 0.00 0.00 0.00 43 1013.4
20260504181603 16 296 12.9 24.1 0.00 0.00 0.00 44 1013.4
20260504181102 16 74 11.3 19.3 0.00 0.00 0.00 42 1013.3
20260504175602 16 42 12.9 22.5 0.00 0.00 0.00 44 1013.4
20260504175059 15 56 16.1 22.5 0.00 0.00 0.00 43 1013.3
20260504174554 16 65 12.9 20.9 0.00 0.00 0.00 42 1013.3
20260504174048 16 55 6.4 20.9 0.00 0.00 0.00 44 1013.3
20260504173542 16 73 3.2 9.7 0.00 0.00 0.00 43 1013.3
20260504173035 16 67 1.6 9.7 0.00 0.00 0.00 42 1013.3
20260504172533 16 76 3.2 12.9 0.00 0.00 0.00 44 1013.3
20260504172034 15 267 4.8 14.5 0.00 0.00 0.00 42 1013.3
20260504171535 15 271 3.2 14.5 0.00 0.00 0.00 41 1013.3
20260504171033 16 194 3.2 6.4 0.00 0.00 0.00 41 1013.3
20260504151033 13 100 11.3 20.9 0.00 0.00 0.00 47 1013.4
20260504150533 13 23 12.9 22.5 0.00 0.00 0.00 47 1013.3
20260504140532 12 89 19.3 33.8 0.00 0.00 0.00 48 1013.1
20260504130531 12 86 20.9 35.4 0.00 0.00 0.00 48 1012.7
20260504110525 13 78 25.7 35.4 0.00 0.00 0.00 45 1012.1
20260504100517 13 11 19.3 37.0 0.00 0.00 0.00 43 1011.9
20260504081504 15 62 14.5 35.4 0.00 0.00 0.00 45 1010.3
20260504081005 15 89 11.3 27.4 0.00 0.00 0.00 48 1010.0
20260504050444 12 30 0.0 0.0 0.00 0.00 0.00 62 1008.6
20260504045943 13 30 0.0 1.6 0.00 0.00 0.00 64 1008.5
20260504045443 13 30 0.0 1.6 0.00 0.00 0.00 64 1008.6
20260504044943 13 30 0.0 1.6 0.00 0.00 0.00 65 1008.5
20260504044439 13 30 0.0 0.0 0.00 0.00 0.00 65 1008.5
20260504043939 14 30 0.0 0.0 0.00 0.00 0.00 58 1008.5
20260504043444 14 30 0.0 0.0 0.00 0.00 0.00 55 1008.4
20260504042941 15 30 0.0 0.0 0.00 0.00 0.00 54 1008.4
20260504042442 15 30 0.0 1.6 0.00 0.00 0.00 53 1008.4
20260504041942 15 30 0.0 1.6 0.00 0.00 0.00 52 1008.4
20260504041440 15 30 0.0 1.6 0.00 0.00 0.00 56 1008.4
20260504040939 16 30 0.0 1.6 0.00 0.00 0.00 55 1008.4